RH
45 38 39 32 28 30 22 11 8 10 8 6 7 7 7 8 8 10 12 12 10 9 9 10 10 15 21 18 12 8 8 9 10 8 7 6 7 8 8 11 35 25 30
45 45 41 31 31 29 16 10 6 7 8 12 18 10 10 12 12 13 15 14 13 12 12 12 18 25 19 18 13 9 8 9 8 7 6 4 4 4 4 5 5 6 9
48 46 37 26 29 22 14 9 7 8 10 12 11 11 13 14 14 16 16 16 17 16 16 22 27 20 21 16 12 11 11 10 8 8 7 6 5 4 4 4 4 4 3
53 41 31 23 22 14 10 9 8 8 10 11 13 15 16 17 19 18 20 22 17 17 25 26 23 21 13 14 14 13 13 10 9 7 6 6 6 7 6 6 5 5 4
52 37 28 22 16 14 10 8 8 9 10 14 17 20 21 23 23 24 26 19 21 29 28 26 22 19 16 17 20 18 18 11 10 8 6 8 8 8 8 9 7 7 6
46 37 27 22 18 12 8 8 8 10 16 17 22 24 26 27 26 29 25 24 34 31 36 26 23 20 18 23 24 21 20 14 8 7 7 8 9 10 11 13 11 11 8
39 32 25 15 11 10 8 9 11 14 16 22 24 29 31 31 32 33 31 38 44 38 29 27 24 26 29 31 28 23 18 12 9 8 8 9 12 14 12 12 10 13 12
44 37 28 17 12 9 8 10 13 15 20 22 26 29 34 38 40 41 44 49 54 47 35 34 34 38 41 42 33 25 16 14 13 11 11 10 14 17 16 15 19 19 21
51 39 26 16 12 10 9 11 15 20 24 23 22 26 38 46 44 45 50 57 64 54 33 39 48 52 62 59 43 28 17 16 16 13 11 13 17 27 22 28 26 28 27
53 44 28 22 19 12 11 14 19 24 25 25 25 24 35 48 48 55 54 62 74 41 35 35 40 49 67 63 61 58 50 42 42 35 28 24 34 35 43 44 53 48 34
59 53 39 28 17 12 17 21 23 27 28 27 25 25 28 31 35 50 65 80 75 46 46 51 39 48 63 67 74 86 90 80 78 69 82 60 51 55 64 61 41 40 40
56 58 40 30 28 26 27 28 29 31 29 28 28 33 36 34 38 64 95 71 57 55 50 35 49 75 77 72 69 76 84 86 82 75 58 65 55 54 77 60 50 52 59
56 50 44 43 37 30 32 30 22 26 31 35 39 46 45 50 76 93 66 62 64 53 44 67 78 78 71 65 83 89 87 65 70 74 62 64 77 78 47 38 57 66 70
63 53 43 39 35 39 30 26 37 37 33 36 46 52 74 88 81 65 70 77 69 53 61 66 83 96 97 85 88 93 87 79 88 92 95 95 76 51 35 49 62 72 70
64 52 44 40 45 36 42 45 43 38 34 34 65 91 83 75 78 84 66 75 80 70 100 100 95 76 92 100 100 98 92 100 100 99 96 71 54 66 71 77 75 74 90
72 59 50 57 49 46 50 49 44 47 46 37 47 99 95 96 95 82 63 96 100 100 99 97 100 89 100 100 100 100 100 98 99 93 67 69 72 83 87 88 100 92 90
64 53 53 53 54 60 56 39 46 47 44 50 56 68 92 90 71 71 58 100 99 94 78 98 100 100 100 100 100 100 99 96 80 66 76 77 88 89 94 100 100 100 93
60 56 64 70 69 71 47 50 35 36 73 92 81 92 84 66 60 78 53 97 100 100 93 92 100 100 100 100 99 89 69 59 54 60 70 83 87 89 97 100 100 100 93
82 84 79 71 76 47 52 55 64 75 62 80 91 76 84 69 98 99 100 100 97 77 100 100 100 99 98 85 61 52 50 52 60 64 74 84 84 90 93 88 81 72 65
97 92 87 82 67 62 49 53 62 68 79 79 87 86 100 91 100 100 93 79 86 95 100 100 99 86 66 45 42 47 49 53 59 65 72 62 47 40 43 70 74 48 27
96 91 90 90 81 63 38 47 69 78 76 83 100 99 99 100 99 100 100 100 99 93 92 88 73 42 39 41 39 38 46 60 65 56 31 20 23 78 79 34 29 33 42
93 96 99 94 65 37 44 80 76 73 86 78 89 93 83 82 76 72 84 97 96 74 43 25 19 20 21 16 14 24 50 62 47 26 25 53 65 30 24 36 45 78 100
97 96 97 69 38 34 38 53 62 62 63 72 71 81 84 76 71 84 77 63 33 16 10 11 16 24 18 14 16 28 56 48 32 57 53 25 23 21 37 52 61 62 96
98 98 80 58 36 33 38 47 55 64 73 74 69 60 56 67 68 51 20 12 10 11 12 15 17 21 17 17 15 51 51 55 43 22 23 21 23 42 47 53 40 41 42
98 96 67 50 45 45 46 56 64 71 75 67 56 56 64 54 25 11 10 11 11 11 13 15 18 25 22 17 47 68 79 27 24 17 29 42 46 49 43 23 22 22 23
59 48 56 55 51 53 61 69 74 71 64 53 58 46 24 9 8 11 11 8 11 10 11 16 23 33 21 47 91 75 31 51 51 55 56 47 31 20 15 11 10 9 9
Wind_Speed
39 37 34 33 29 26 25 24 25 23 20 17 17 17 18 19 22 27 28 30 33 35 38 41 45 48 50 47 46 42 40 39 31 21 21 19 18 22 25 31 35 33 34
39 36 34 32 25 25 26 25 23 20 18 18 16 17 18 22 25 28 31 32 35 37 40 43 48 48 48 53 48 42 42 42 41 38 31 23 21 20 21 25 30 35 38
41 34 33 31 25 26 27 24 22 20 20 18 17 18 21 25 28 29 30 34 36 40 42 45 43 44 51 56 50 46 45 42 43 41 39 33 27 23 23 24 25 27 28
40 30 30 27 26 26 26 23 22 22 20 18 18 20 24 27 28 31 33 37 41 44 46 41 43 45 48 48 46 47 50 50 46 40 35 35 37 34 36 33 30 33 34
31 28 27 26 28 27 25 23 23 22 20 19 21 23 26 28 30 34 36 40 43 46 42 43 45 46 50 48 48 50 49 50 50 49 47 46 45 43 40 41 40 39 40
28 28 30 29 31 27 26 24 24 23 22 22 22 25 29 32 35 37 40 43 46 40 46 46 47 48 51 50 49 49 51 51 51 51 50 50 51 51 53 54 51 48 52
23 26 28 28 28 28 27 25 25 26 24 24 25 29 33 36 38 40 43 46 45 43 43 46 47 48 50 52 52 51 52 53 52 52 52 51 51 53 55 56 55 58 61
23 25 30 29 28 29 28 27 28 28 27 26 27 31 36 39 41 44 46 49 50 45 47 47 48 48 51 54 56 53 55 55 57 57 57 58 57 58 61 59 58 66 71
26 26 30 29 29 30 29 29 29 29 29 27 30 35 40 43 44 47 49 52 52 49 50 51 50 50 51 51 53 53 55 56 57 59 62 60 61 62 60 58 65 71 74
27 27 31 33 33 31 30 29 29 31 30 32 35 39 44 45 48 50 52 55 55 51 52 55 57 59 56 52 50 52 56 58 60 62 61 60 59 56 59 66 69 70 67
29 29 33 35 34 32 30 29 31 32 34 35 38 43 46 48 52 54 55 57 56 54 55 61 61 61 54 50 51 53 54 55 59 64 64 58 56 66 67 67 68 66 62
33 31 32 32 34 32 30 32 34 35 36 39 41 44 47 51 54 57 56 57 58 61 63 63 58 54 55 54 50 50 52 55 54 49 49 52 55 61 64 64 67 58 56
34 33 32 33 35 33 32 33 35 37 40 43 45 45 47 53 55 56 55 59 63 63 62 58 60 61 59 54 53 55 55 58 56 53 56 59 63 62 59 61 57 55 53
36 37 38 33 32 32 33 34 38 37 40 46 48 46 46 53 56 58 61 66 64 61 63 63 65 62 62 63 61 55 56 59 56 58 61 59 59 57 58 57 53 50 49
38 38 37 34 32 31 33 33 36 39 41 47 47 47 49 54 57 61 67 66 61 58 65 66 67 67 69 70 60 54 57 56 55 56 59 56 55 54 52 49 47 43 40
41 42 36 33 36 34 32 30 37 41 44 47 52 52 57 61 59 60 65 62 58 57 58 65 77 83 78 54 55 55 55 54 58 55 54 53 52 49 47 43 40 39 39
42 38 37 40 36 32 30 35 34 40 48 52 57 58 62 67 68 66 65 69 68 67 63 69 64 55 58 58 56 58 60 58 53 53 53 51 49 46 42 40 39 39 40
41 40 39 37 32 32 40 36 42 47 52 58 61 63 67 67 68 57 64 71 64 73 77 78 61 68 64 67 66 63 56 53 54 53 51 48 45 42 41 42 43 44 44
41 41 35 34 35 36 36 44 48 54 59 60 64 65 62 62 71 65 68 66 74 78 85 68 84 79 72 72 62 58 55 53 52 49 48 45 42 40 40 41 42 44 45
33 33 34 31 36 37 43 49 56 58 61 66 61 58 61 58 59 71 74 73 75 78 87 84 84 82 73 68 63 56 52 52 49 46 43 41 41 40 36 35 35 37 39
32 30 31 33 38 44 51 56 62 63 63 62 57 59 64 64 67 68 74 78 79 83 81 80 77 72 67 62 55 51 51 46 42 40 38 37 33 30 32 34 34 34 35
31 31 34 36 43 50 55 59 61 61 61 61 57 61 65 67 71 75 77 75 76 74 71 70 70 66 59 53 50 47 42 38 38 36 32 30 30 30 32 30 27 27 25
34 31 33 40 47 49 52 54 57 59 58 56 60 64 67 71 72 70 70 70 68 68 69 67 62 54 49 48 45 37 33 34 31 29 31 32 30 29 25 24 25 26 25
34 37 41 48 50 49 51 53 54 55 57 59 61 64 68 66 66 66 64 64 65 65 64 63 59 49 44 42 32 30 29 26 27 30 30 26 23 22 24 28 28 27 28
40 45 50 53 50 50 51 52 55 57 58 61 65 66 63 62 61 59 59 59 61 64 65 61 52 42 39 30 27 23 21 23 22 18 16 17 19 24 27 26 28 27 28
44 48 56 56 50 49 50 52 55 59 61 64 61 57 57 55 54 50 53 58 62 63 63 55 35 31 27 24 18 18 18 16 15 15 17 19 21 24 26 26 27 28 29
Wind_Direction
302 303 297 290 288 288 286 284 285 286 290 288 289 294 300 307 308 307 305 307 308 308 308 307 310 314 317 320 322 316 315 315 315 304 300 287 277 273 277 277 277 286 287
304 302 291 286 287 283 284 285 283 285 282 281 288 290 298 298 299 300 302 306 305 302 304 308 310 311 316 319 319 314 315 315 313 311 307 299 288 275 266 275 273 273 275
302 294 282 283 282 279 279 281 281 279 278 284 292 295 294 296 297 299 299 297 299 301 304 305 309 314 317 318 313 309 311 306 305 306 310 308 305 296 299 299 303 300 302
299 281 275 276 275 274 276 276 275 275 277 285 293 297 293 290 293 291 294 296 295 298 302 303 307 313 317 313 303 304 306 306 303 301 302 303 304 299 300 296 293 292 291
287 272 270 270 271 274 274 273 272 272 280 287 291 288 287 289 289 290 292 295 296 298 298 302 309 310 316 309 303 301 301 300 299 300 300 302 298 296 295 297 295 293 290
275 263 266 269 273 273 271 270 269 272 277 280 285 285 283 284 284 289 293 291 295 294 297 302 309 312 312 305 300 299 299 296 292 292 293 294 294 297 296 298 296 295 290
267 261 268 270 271 269 266 265 267 271 274 277 279 279 280 282 284 287 288 291 293 296 301 304 307 304 302 297 296 293 290 288 284 284 285 285 286 287 286 289 289 291 292
265 270 270 271 271 265 262 261 264 269 272 277 280 280 281 283 286 289 290 291 292 299 300 297 298 292 293 293 290 288 284 284 283 280 281 281 282 282 284 286 286 287 292
261 265 270 273 269 262 259 261 267 273 277 282 284 284 282 284 288 289 290 291 294 297 299 299 299 297 293 292 284 284 285 285 285 285 284 283 285 287 290 292 289 291 291
260 263 270 270 267 262 261 265 273 277 283 286 287 288 285 286 288 289 290 290 292 297 299 303 303 299 294 292 291 289 287 287 288 287 287 287 290 293 292 290 296 298 299
261 261 266 270 268 266 265 272 278 282 285 287 288 289 291 291 291 287 288 289 292 297 300 302 300 296 292 293 295 293 291 293 291 288 285 286 290 288 293 295 298 299 295
266 263 265 263 266 264 267 273 277 282 284 287 290 290 292 293 291 289 291 292 295 299 302 305 299 294 292 291 295 297 297 298 298 292 292 288 286 286 297 298 297 292 292
260 260 258 261 264 263 268 272 279 286 291 291 289 287 288 289 289 290 296 301 303 305 304 298 297 294 292 294 297 299 303 303 296 284 288 288 289 296 299 296 293 292 290
258 260 262 267 259 263 272 280 286 288 292 297 291 286 284 285 287 292 300 305 301 302 303 302 300 292 294 295 297 297 297 296 289 287 288 292 297 296 295 293 291 289 288
260 263 265 266 262 266 276 287 289 292 295 300 299 285 283 284 295 303 306 303 300 303 302 295 299 297 295 291 292 294 293 291 291 290 299 301 294 293 294 293 290 286 282
257 261 265 260 261 265 277 281 297 294 291 288 289 278 282 298 303 304 304 302 295 299 298 297 296 294 291 287 290 288 292 294 299 303 296 294 293 294 294 291 284 283 281
253 259 253 255 260 274 279 304 289 290 287 285 284 286 289 295 299 302 302 296 288 306 301 299 290 285 289 293 294 296 296 302 299 295 295 292 292 291 288 283 279 281 282
260 257 260 266 274 277 301 302 304 297 288 286 291 293 295 300 300 299 308 299 290 297 299 292 281 292 301 304 303 303 301 299 297 294 292 290 288 286 285 282 281 279 279
252 256 260 267 272 301 302 297 290 288 287 289 290 294 299 303 297 290 298 287 296 296 293 281 287 304 303 300 299 299 299 295 292 291 289 288 286 285 283 284 284 284 282
254 262 268 271 289 295 298 289 281 284 286 288 293 299 294 301 287 286 290 291 292 288 291 292 296 299 298 298 298 297 294 291 290 289 288 287 286 287 288 288 287 287 289
260 275 266 281 283 290 290 284 281 282 286 293 293 291 288 284 284 287 286 288 286 290 292 293 292 292 293 296 297 294 289 290 288 286 286 287 285 286 287 287 292 297 295
273 266 266 276 284 287 284 282 283 285 288 289 284 280 284 287 287 286 287 289 291 292 293 292 293 295 300 305 299 288 289 287 284 286 287 284 287 286 287 290 296 304 298
285 279 277 278 290 288 282 281 283 286 286 285 286 286 288 287 287 290 293 293 293 293 293 295 298 301 303 296 290 293 283 281 285 285 286 287 286 286 288 294 294 295 297
279 264 270 283 293 294 291 288 287 285 285 286 287 287 286 290 293 294 295 294 294 295 296 295 297 296 291 293 292 279 283 284 286 288 291 287 284 284 290 298 297 293 294
265 261 274 288 297 298 293 288 286 287 288 287 286 287 292 294 295 294 294 297 298 298 297 295 293 286 285 288 278 283 281 288 291 292 292 288 284 292 298 299 300 298 296
268 275 280 290 295 292 289 287 286 286 285 286 291 293 294 296 295 297 300 303 303 300 296 292 281 277 279 277 278 278 281 285 289 293 293 294 297 300 302 303 302 301 299